カタログに戻る

STARLINK-11689

運用中通信VLEO
NORAD 64241·PAYLOAD·🇺🇸 United States

打ち上げ Jun 3, 2025 から Cape Canaveral Space Force Station

Loading…

次のパス (今後24時間)

TLE

最新Source: CelesTrak SupGP

元期: Sep 15, 2026, 02:49 UTC

1 64241C 25119J   26258.11784722  .00080461  00000+0  62500-3 0  2582
2 64241  43.0005 147.2879 0001692 265.9093 216.5878 15.70795858    14

AllMySatでSTARLINK-11689をリアルタイム追跡

Download on the App Store